CZ-3B DEB, 42473

Orbit data source: Space-Track

CZ-3B DEB, 42473 is space debris in HEO originally from a launch on Mon, 19 Dec 2011 UTC launched from the Xichang Space Center, China (XSC). Debris objects in space refer to the collection of defunct objects orbiting the Earth. Examples of debris include non-operational satellites, rocket bodies, and fragments generated from explosions, collisions, or faulty payload assembly.

Loading next visibility...
Identifier
42473, 2011-077AN
Orbit
HEO
Country
Flag of CNCN / PRC
Related business
Manufacturer
CALT
Mission
Spacecraft
Bus & Motor
Unknown
Mass
Unknown
Launch date (UTC)
2011-12-19 (14 years ago)
Launch vehicle
Unknown
Launch site
Xichang Space Center, China (XSC)
Object type
Payload
Rocket body
Debris
Shape & HBR
Unknown
Radar Cross Section
Medium (>0.1 m² and <1 m²)

Expand to show TLE details & history
Last TLE update: 2 days ago

TLE from 2 days ago
0 CZ-3B DEB
1 42473U 11077AN  25259.14345907 -.00000147  00000-0  00000-0 0  9995
2 42473  23.0083 113.0196 7174476  17.1892 358.2334  1.69235024 58455
Epoch: 2025-09-16T03:26Z
TLE epoch observation values (Epoch: 2025-09-16T03:26:34.863Z)
Latitude
0.00063°
Longitude
66.09294°
Altitude
2,182.164 km
Speed
8.929 km/s
True Right ascension
07h 32m 18s
True Declination
0° 00' 02"
Sunlit
Object was in daylight at epoch
Visualization orbit readout
Latitude
Unknown
Longitude
Unknown
Altitude
Unknown
Speed
Unknown
Apparent Right ascension
Unknown
Apparent Declination
Unknown
Sunlit
N/A
Visualization observer readout
Local Sidereal Time
05:26:22
Azimuth
Unknown
Elevation
Unknown
Doppler factor
Unknown
Orbital elements
Apogee altitude
44,712.51 km
Perigee altitude
2,027.234 km
Semi-major axis
29,748.009 km
Eccentricity
0.71745
Inclination
23.0083°
RAAN
113.0196°
Arg. of periapsis
17.1892°
True anomaly
344.73772°
Mean anomaly
358.2334°
Eccentric anomaly
353.77873°
Mean motion
0.42302 °/min
Orbital period
851.03 mins
BSTAR
0
Loading maneuver chart data...
Computing Atmospheric mass density...
Loading historical data...
Loading historical data...
Loading historical data...
Loading historical data...
Loading historical data...
Loading historical data...
Loading historical data...

Documentation

Showing up to 5 results
|